INTELSAT 20 (IS-20) (38740 NORAD) Tracking and Keplerian Element Data

This shows tracking and keplerian element data for the satellite.

Feedback or suggestion? Click here.




ElementValue
Catalog38740
NameINTELSAT 20 (IS-20)
Epoch Orbit2802
Epoch Day93.78660531
Epoch Year2020
RAAN136.4485
Inclination0.0185
Eccentricity0.0002131
Argument of Perigee35.4215
Mean Anonmoly11.376
Mean Motion1.00271099
Decay Rate-3.3E-07
L11 38740U 12043A 20093.78660531 -.00000033 00000-0 00000-0 0 9999
L22 38740 0.0185 136.4485 0002131 35.4215 11.3760 1.00271099 28025

Live tracking and technical data element details for INTELSAT 20 (IS-20) (NORAD 38740). INTELSAT 20 (IS-20) can be tracked NOW for your location showing map with azimuth and elevation plus other details from your city location.

Track the satellite on the map from your city or location and see movement details for azimuth, elevation, latitude, longitude, range, height, and movement on the map or in text.







IsCatalogInMostPopularTable: catalog: 38740, numindb: 406
Update: records affected: 1



GetName: 38740 INTELSAT 20 (IS-20)

Hit Count: updated at: Tue, 07 Apr 2020 22:50:06 GMT